Regional Weather Roundup
Issued by NWS

Home | Current Version | Previous Version | Text Only | Print | Product List | Glossary Off
Versions: 1 2 3 4 5 6 7 8 9 10 11 12 13 14 15 16 17 18 19 20 21 22 23 24 25 26 27 28 29 30 31 32 33 34 35 36 37 38 39 40 41 42 43 44 45 46 47 48 49 50

000
ASUS44 KMEG 121800
RWRTN
TENNESSEE HOURLY STATE WEATHER ROUNDUP
NATIONAL WEATHER SERVICE MEMPHIS TN
1200 PM CST TUE DEC 12 2017

TNZ002-004-019-021-049-052-054-088>092-121900-
WEST TENNESSEE

CITY           SKY/WX    TMP DP  RH WIND       PRES   REMARKS
MEMPHIS INTL   SUNNY     48  27  44 N15G23    30.20F
NWS MEMPHIS      N/A     48 N/A N/A MISG        N/A
JACKSON        SUNNY     46  25  43 N18       30.17F
DYERSBURG      SUNNY     43  20  39 NW15G21   30.20F
$$

TNZ008-025-027-028-033-062-065-066-121900-
NORTH MIDDLE TENNESSEE

CITY           SKY/WX    TMP DP  RH WIND       PRES   REMARKS
NASHVILLE      PTSUNNY   42  22  44 NW16G24   30.07F
CLARKSVILLE    MOSUNNY   39  16  39 NW15G29   30.11F WCI  31
SMYRNA         PTSUNNY   41  22  46 NW15      30.08F
CROSSVILLE     CLOUDY    33  21  61 NW16G24   29.95F WCI  23
$$

TNZ061-075-076-078-094-096-097-121900-
SOUTH MIDDLE TENNESSEE

CITY           SKY/WX    TMP DP  RH WIND       PRES   REMARKS
WINCHESTER     CLOUDY    43  27  52 N13       30.03S
$$

TNZ017-018-042-046-047-121900-
NORTHEAST TENNESSEE

CITY           SKY/WX    TMP DP  RH WIND       PRES   REMARKS
TRI CITIES     LGT RAIN  39  31  72 W14G28    29.78F WCI  31
$$

TNZ012-013-036-069-073-074-121900-
CENTRAL EAST TENNESSEE

CITY           SKY/WX    TMP DP  RH WIND       PRES   REMARKS
KNOXVILLE      PTSUNNY   42  29  59 W23G31    29.92F
OAK RIDGE      CLOUDY    40  25  55 W8        29.95F WCI  34
$$

TNZ083-085-099-121900-
SOUTHEAST TENNESSEE

CITY           SKY/WX    TMP DP  RH WIND       PRES   REMARKS
CHATTANOOGA    PTSUNNY   45  28  51 NW9       29.99F
$$

SKY/WX REPORTED AS FAIR MEANS FEW OR NO CLOUDS BELOW
12 THOUSAND FEET.





USA.gov is the U.S. government's official web portal to all federal, state and local government web resources and services.